Miscellaneous Local Product
Issued by NWS Hastings, NE

Home | Current Version | Previous Version | Graphics & Text | Print | Product List | Glossary On
Versions: 1 2 3 4 5 6 7 8 9 10 11 12 13 14 15 16 17 18 19 20 21 22 23 24 25 26 27 28 29 30 31 32 33 34 35 36 37 38 39 40 41 42 43 44 45 46 47 48 49 50
723
AXUS43 KGID 262202
MISGRI

GID CWA HOURLY WEATHER ROUNDUP
NATIONAL WEATHER SERVICE HASTINGS NE
500 PM CDT WED APR 26 2017

NOTE: "FAIR" INDICATES FEW OR NO CLOUDS BELOW 12,000 FEET WITH NO
SIGNIFICANT WEATHER AND/OR OBSTRUCTIONS TO VISIBILITY.

...SOUTH CENTRAL NEBRASKA...

CITY           SKY/WX    TMP DP  RH WIND       PRES   REMARKS
GRAND ISLAND   CLOUDY    45  31  58 NW21      29.72F
HASTINGS       PTSUNNY   46  31  55 N22G30    29.72F
KEARNEY        CLOUDY    45  28  53 N16       29.73F
ORD            CLOUDY    42  30  62 N15       29.72F
YORK           CLOUDY    45  32  61 N13G18    29.69F
AURORA         CLOUDY    45  32  59 NW21G26   29.70F
LEXINGTON      PTSUNNY   48  32  53 N15G21    29.73S
HOLDREGE       PTSUNNY   47  30  51 N8G20     29.72S
HEBRON         CLOUDY    48  33  54 N18       29.69S

...NEBRASKA PANHANDLE...

CITY           SKY/WX    TMP DP  RH WIND       PRES   REMARKS
CHADRON        SUNNY     47  34  60 NE9       29.71F
ALLIANCE       SUNNY     52  35  52 NE13      29.68F
SCOTTSBLUFF    SUNNY     60  31  33 MISG      29.65F
SIDNEY         PTSUNNY   55  30  38 N12       29.68F

...WESTERN AND NORTH CENTRAL NEBRASKA...

CITY           SKY/WX    TMP DP  RH WIND       PRES   REMARKS
VALENTINE      CLOUDY    43  26  51 N14G24    29.75F
AINSWORTH      CLOUDY    39  31  70 N18G24    29.74F WCI  30
ONEILL         CLOUDY    42  28  59 NW17      29.72S
BROKEN BOW     PTSUNNY   46  30  53 N13G22    29.72F
IMPERIAL       SUNNY     57  30  35 N14       29.70F
NORTH PLATTE   SUNNY     53  30  41 N12G22    29.71F
MCCOOK         SUNNY     57  30  35 NW12G24   29.71F

...EASTERN NEBRASKA...

CITY           SKY/WX    TMP DP  RH WIND       PRES   REMARKS
NORFOLK        CLOUDY    41  31  67 N8G25     29.67S
SO SIOUX CITY  CLOUDY    41  32  70 NW23G29   29.67S
TEKAMAH        CLOUDY    43  32  65 NW21G28   29.67F
COLUMBUS       CLOUDY    45  30  57 NW20      29.69F
ALBION         CLOUDY    45  32  61 NW18      29.70S
OMAHA EPPLEY   CLOUDY    43  33  68 NW18      29.65F
OFFUTT AFB     CLOUDY    43  33  66 NW16G23   29.65F
MILLARD        CLOUDY    45  34  67 NW13G22   29.67S
LINCOLN        CLOUDY    45  33  63 NW20      29.69F
NEBRASKA CITY  CLOUDY    44  30  58 NW18G25   29.65F
BEATRICE       CLOUDY    47  35  64 N18       29.67F
FALLS CITY     CLOUDY    46  35  65 NW17G24   29.63F

...NORTHERN KANSAS...

CITY           SKY/WX    TMP DP  RH WIND       PRES   REMARKS
GOODLAND       SUNNY     58  27  30 N13       29.71F
HILL CITY      MOSUNNY   57  32  38 N14G22    29.71F
NORTON         PTCLDY    54  32  43 N8        29.70F
PHILLIPSBURG   MOSUNNY   52  34  50 NW12G17   29.72F
SMITH CENTER   PTSUNNY   50  32  50 NW14G20   29.72F
HAYS           MOSUNNY   54  33  45 N15G23    29.71F
RUSSELL        MOSUNNY   54  34  46 NW21      29.70F
CONCORDIA      CLOUDY    49  36  61 NW15G23   29.68F
SALINA         CLOUDY    54  37  52 N17       29.68F
TOPEKA         CLOUDY    51  39  63 NW13G20   29.63S



USA.gov is the U.S. government's official web portal to all federal, state and local government web resources and services.